Regional Weather Roundup
Issued by NWS

Home | Current Version | Previous Version | Text Only | Print | Product List | Glossary Off
Versions: 1 2 3 4 5 6 7 8 9 10 11 12 13 14 15 16 17 18 19 20 21 22 23 24 25 26 27 28 29 30 31 32 33 34 35 36 37 38 39 40 41 42 43 44 45 46 47 48 49 50

202
ASUS43 KLMK 280102
RWRKY
KENTUCKY REGIONAL WEATHER ROUNDUP
NATIONAL WEATHER SERVICE LOUISVILLE KY
900 PM EDT SAT MAY 27 2017

NOTE "FAIR" INDICATES FEW OR NO CLOUDS BELOW 12,000 FEET
WITH NO SIGNIFICANT WEATHER AND/OR OBSTRUCTIONS TO VISIBILITY.

KYZ001>023-026-027-061>063-070>075-280200-
WESTERN AND SOUTH CENTRAL KENTUCKY

CITY           SKY/WX    TMP DP  RH WIND       PRES   REMARKS
PADUCAH        CLOUDY    66  60  81 CALM      29.85F
HENDERSON      NOT AVBL
OWENSBORO      LGT RAIN  72  62  71 W23G29    29.90R
HOPKINSVILLE   TSTM      64  64 100 W12       29.99R
BOWLING GREEN  LGT RAIN  69  62  78 N5        29.94R
GLASGOW        NOT AVBL
$$

KYZ024-025-028>034-038-045-046-053-280200-
NORTH CENTRAL KENTUCKY

CITY           SKY/WX    TMP DP  RH WIND       PRES   REMARKS
LOUISVILLE/SDF TSTM      69  63  81 S18G26    29.88R
LOUISVILLE/LOU TSTM      71  63  75 SW12G25   29.89R
FORT KNOX      LGT RAIN  64  64 100 S20       29.86F
$$

KYZ035>037-039>044-047>052-055>060-089>105-280200-
NORTHEAST KENTUCKY

CITY           SKY/WX    TMP DP  RH WIND       PRES   REMARKS
LEXINGTON      CLOUDY    73  67  81 SW15      29.89R
COVINGTON      CLOUDY    75  69  81 SW7       29.84R
FRANKFORT      CLOUDY    72  66  81 S9        29.87R
$$

KYZ054-064>069-076>088-106>120-280200-
SOUTHEAST KENTUCKY

CITY           SKY/WX    TMP DP  RH WIND       PRES   REMARKS
JACKSON        CLOUDY    64  63  96 CALM      29.91S
LONDON         TSTM      68  60  75 SW9       29.93R
SOMERSET       TSTM      61  61 100 CALM      29.95R
MIDDLESBORO    CLOUDY    67  67  99 CALM      29.92F
MONTICELLO     TSTM      65  62  90 W14G21    30.00R
$$





USA.gov is the U.S. government's official web portal to all federal, state and local government web resources and services.